Weather Roundup
Issued by NWS

Home | Current Version | Previous Version | Graphics & Text | Print | Product List | Glossary Off
Versions: 1 2 3 4 5 6 7 8 9 10 11 12 13 14 15 16 17 18 19 20 21 22 23 24 25 26 27 28 29 30 31 32 33 34 35 36 37 38 39 40 41 42 43 44 45 46 47 48 49 50

000
NZUS93 KARX 212059
HRRWXR

CURRENT HOURLY OBSERVATIONS ACROSS
MUCH OF THE UPPER MISSISSIPPI VALLEY
NATIONAL WEATHER SERVICE LA CROSSE WI
300 PM CST SUN DEC 21 2014


...SOUTHEAST MINNESOTA...


CITY           SKY/WX    TMP DP  RH WIND       PRES   REMARKS
ROCHESTER      CLOUDY    36  34  92 S22G29    29.78F FOG     WCI  25
ROCHESTER/MAYO CLOUDY    36  35  96 SE13G26   29.78F WCI  28
WINONA         CLOUDY    37  34  87 S6G16     29.85S WCI  33
AUSTIN         CLOUDY    36  36 100 S15G23    29.76F FOG     WCI  26
ALBERT LEA     CLOUDY    37  37 100 S15G23    29.73S FOG     WCI  28
DODGE CENTER   CLOUDY    36  36 100 S21G26    29.74F FOG     WCI  24
PRESTON        CLOUDY    35  34  96 S20G26    29.81F FOG     WCI  24
OWATONNA       CLOUDY    37  36  93 S13       29.75S FOG     WCI  29
FARIBAULT      CLOUDY    36  36 100 S13G20    29.75S FOG     WCI  27
$$

...ELSEWHERE IN MINNESOTA...


CITY           SKY/WX    TMP DP  RH WIND       PRES   REMARKS
MINNEAPOLIS    LGT RAIN  36  34  92 SE9       29.75F FOG     WCI  29
INTNL FALLS    CLOUDY    31  29  92 S3        29.69F
DULUTH         FOG       32  30  92 SE13      29.74F VSB 3/4 WCI  22
RED WING       DRIZZLE   37  36  93 S7        29.79F WCI  32
REDWOOD FALLS  CLOUDY    35  34  96 SE10      29.67F FOG     WCI  27
MANKATO        CLOUDY    37  34  87 S14G20    29.72S WCI  29
WORTHINGTON    CLOUDY    37 -11  12 S16G23    29.65F WCI  28
FAIRMONT       CLOUDY    37  34  87 S18       29.69F WCI  27
$$

...SOUTHWEST WISCONSIN...


CITY           SKY/WX    TMP DP  RH WIND       PRES   REMARKS
LA CROSSE      CLOUDY    39  35  86 S13       29.87S WCI  31
PRAIRIE DU CHI CLOUDY    39  33  81 SE7       29.91S WCI  34
BOSCOBEL       CLOUDY    39  34  82 S7        29.94S HAZE    WCI  34
LONE ROCK      NOT AVBL
PLATTEVILLE    CLOUDY    37  34  91 S13       29.95F WCI  28
FORT MC COY    CLOUDY    37  33  84 S9        29.90F WCI  31
VIROQUA        CLOUDY    36  36 100 S15G21    29.88F WCI  26
WIS DELLS      NOT AVBL
$$

...ELSEWHERE IN WISCONSIN...


CITY           SKY/WX    TMP DP  RH WIND       PRES   REMARKS
MILWAUKEE      CLOUDY    37  29  72 S10       30.07S WCI  30
MADISON        CLOUDY    36  32  85 S12       29.98F WCI  28
GREEN BAY      CLOUDY    35  32  88 S9        30.01F FOG     WCI  28
EAU CLAIRE     CLOUDY    36  34  93 S12       29.82F FOG     WCI  27
BLACK RVR FLS  CLOUDY    37  37  98 S8        29.87F FOG     WCI  31
MEDFORD        LGT SNOW  32  32  99 SE13      29.86S WCI  22
WAUSAU         LGT SNOW  33  32  96 S14       29.90S FOG     WCI  23
WIS RAPIDS     CLOUDY    35  31  85 S7        29.94S FOG     WCI  29
MARSHFIELD     LGT SNOW  34  32  92 S17       29.89S VSB 3/4 WCI  23
RICE LAKE      LGT SNOW  33  32  96 SE9       29.81F WCI  25
$$

...NORTHEAST IOWA...


CITY           SKY/WX    TMP DP  RH WIND       PRES   REMARKS
DECORAH        CLOUDY    37  36  93 S13G21    29.85S FOG     WCI  29
MASON CITY     CLOUDY    37  35  92 S18       29.79F FOG     WCI  27
CHARLES CITY   CLOUDY    37  37 100 S16       29.83S FOG     WCI  28
OELWEIN        CLOUDY    37  36  93 S18       29.87S FOG     WCI  27
$$

...ELSEWHERE IN IOWA...


CITY           SKY/WX    TMP DP  RH WIND       PRES   REMARKS
DES MOINES     CLOUDY    42  36  79 S16G24    29.83F
IOWA CITY      CLOUDY    41  36  82 S12       29.93F
FORT DODGE     CLOUDY    39  36  87 S16G22    29.77S WCI  30
$$

...NORTHERN ILLINOIS...


CITY           SKY/WX    TMP DP  RH WIND       PRES   REMARKS
CHICAGO-OHARE  CLOUDY    36  28  73 S14       30.08F WCI  27
CHICAGO-MIDWAY CLOUDY    38  29  70 S12       30.10F WCI  30
MOLINE         CLOUDY    40  33  76 S14       29.97F WCI  32
ROCKFORD       CLOUDY    37  31  78 S14       30.05S WCI  28
PEORIA         CLOUDY    39  30  70 S16G26    30.04S WCI  30
$$

NOTE: "FAIR" INDICATES FEW OR NO CLOUDS BELOW 12,000 FEET WITH NO
SIGNIFICANT WEATHER AND/OR OBSTRUCTIONS TO VISIBILITY. WIND
SPEEDS ARE IN MILES-PER-HOUR.



USA.gov is the U.S. government's official web portal to all federal, state and local government web resources and services.